This demonstration page uses our WeatherBlox Daily Observations layout. Learn more.

Hourly Observations for February 4, 2017

Temp ( °F °C ) Dew Point ( °F °C ) Humidity (%) Winds ( mph kmh ) Pressure ( in mb ) Visibility ( mi km ) Precip ( " mm )
12:54 am 00:54 Clear 24 -4.4 16 -8.9 71 71 S 12 19 30.31 1027 10 16.0934 0 0
1:54 am 01:54 Clear 25 -3.9 17 -8.3 72 72 S 14 22 30.27 1025 10 16.0934 0 0
2:54 am 02:54 Clear 25 -3.9 17 -8.3 72 72 S 16 26 30.22 1023 10 16.0934 0 0
3:54 am 03:54 Mostly Clear 25 -3.9 17 -8.3 72 72 S 14 22 30.21 1023 10 16.0934 0 0
4:54 am 04:54 Clear 26 -3.3 17 -8.3 69 69 S 17 28 30.15 1021 10 16.0934 0 0
5:54 am 05:54 Clear 26 -3.3 16 -8.9 66 66 S 18 30 30.1 1019 10 16.0934 0 0
6:54 am 06:54 Clear 26 -3.3 16 -8.9 66 66 S 20 31 30.06 1018 10 16.0934 0 0
7:54 am 07:54 Sunny 25 -3.9 15 -9.4 66 66 S 16 26 30.04 1017 10 16.0934 0 0
8:54 am 08:54 Sunny 28 -2.2 16 -8.9 60 60 S 22 35 30.01 1016 10 16.0934 0 0
9:54 am 09:54 Sunny 33 0.6 17 -8.3 52 52 S 21 33 29.96 1015 10 16.0934 0 0
10:54 am 10:54 Sunny 38 3.3 18 -7.8 44 44 SSW 25 41 29.93 1014 10 16.0934 0 0
11:54 am 11:54 Sunny 41 5 19 -7.2 41 41 SSW 24 39 29.88 1012 10 16.0934 0 0
12:54 pm 12:54 Sunny 45 7.2 21 -6.1 39 39 SW 21 33 29.84 1010 10 16.0934 0 0
1:54 pm 13:54 Sunny 48 8.9 22 -5.6 36 36 SW 22 35 29.8 1009 10 16.0934 0 0
2:54 pm 14:54 Sunny 51 10.6 24 -4.4 35 35 WSW 16 26 29.79 1009 10 16.0934 0 0
3:54 pm 15:54 Sunny 52 11.1 26 -3.3 37 37 WSW 17 28 29.78 1009 10 16.0934 0 0
4:54 pm 16:54 Sunny 53 11.7 28 -2.2 38 38 WSW 10 17 29.8 1009 10 16.0934 0 0
5:54 pm 17:54 Clear 49 9.4 30 -1.1 48 48 W 8 13 29.82 1010 10 16.0934 0 0
6:54 pm 18:54 Clear 45 7.2 30 -1.1 56 56 WSW 5 7 29.86 1011 10 16.0934 0 0
7:54 pm 19:54 Clear 40 4.4 29 -1.7 65 65 NNW 15 24 29.91 1013 10 16.0934 0 0
8:54 pm 20:54 Clear 33 0.6 27 -2.8 78 78 N 8 13 29.94 1014 10 16.0934 0 0
9:54 pm 21:54 Clear 36 2.2 27 -2.8 70 70 NNW 9 15 29.97 1015 10 16.0934 0 0
10:54 pm 22:54 Clear 34 1.1 27 -2.8 76 76 NNW 14 22 29.99 1016 10 16.0934 0 0
11:54 pm 23:54 Clear 31 -0.6 23 -5 72 72 NNW 12 19 30.01 1016 10 16.0934 0 0

Powered by AerisWeather